STARLINK-34963, 65242

Orbit data source: Space-Track

STARLINK-34963, 65242 is a payload satellite owned by SpaceX/Seattle (US) in SSO that was launched on Mon, 18 Aug 2025 UTC via an FALCON 9 launch vehicle from the Air Force Western Test Range (AFWTR). Payload-class satellites include a variety of spacecraft equipped with specific instruments for various scientific and technological missions. These include communications satellites like Starlink; space stations such as the ISS; scientific satellites like the Hubble; Earth observation satellites from companies like Planet Labs, Umbra, and HawkEye 360; GPS; miniature CubeSats for education and research; and military/defense satellites.

Loading next visibility...
Identifier
65242, 2025-179H
Orbit
SSO
Country
Flag of USUS
Related business
Manufacturer
SpaceX/Seattle
Mission
Operational Commercial Communications
Bus & Motor
STARLINK V2MO, Unknown motor
Mass
575 kg wet, ~530 kg dry
Launch date (UTC)
2025-08-18 (10 months ago)
Launch vehicle
FALCON 9
Launch site
Air Force Western Test Range (AFWTR)
Object type
Payload
Rocket body
Debris
Shape & HBR
Box + 2 Pan, 17.7 m
Radar Cross Section
36.964 m², Large (>1 m²)

Expand to show TLE details & history
Last TLE update: 11 hours ago

TLE from 11 hours ago
0 STARLINK-34963
1 65242U 25179H   26171.38245196  .00005455  00000-0  38162-3 0  9990
2 65242  97.3368 213.1465 0002064  98.4657 261.6805 15.05662262 47420
Epoch: 2026-06-20T09:10Z
TLE epoch observation values (Epoch: 2026-06-20T09:10:43.849Z)
Latitude
0.00003°
Longitude
166.86592°
Altitude
552.754 km
Speed
7.585 km/s
True Right ascension
14h 12m 35s
True Declination
0° 00' 00"
Sunlit
Object was in full shadow at epoch
Visualization orbit readout
Latitude
Unknown
Longitude
Unknown
Altitude
Unknown
Speed
Unknown
Apparent Right ascension
Unknown
Apparent Declination
Unknown
Sunlit
N/A
Visualization observer readout
Local Sidereal Time
07:14:16
Azimuth
Unknown
Elevation
Unknown
Doppler factor
Unknown
Orbital elements
Apogee altitude
547.885 km
Perigee altitude
545.026 km
Semi-major axis
6,924.593 km
Eccentricity
0.00021
Inclination
97.3368°
RAAN
213.1465°
Arg. of periapsis
98.4657°
True anomaly
261.6571°
Mean anomaly
261.6805°
Eccentric anomaly
261.6688°
Mean motion
3.76662 °/min
Orbital period
95.58 mins
BSTAR
0.00038162
Loading maneuver chart data...
Computing Atmospheric mass density...
Loading historical data...
Loading historical data...
Loading historical data...
Loading historical data...
Loading historical data...
Loading historical data...
Loading historical data...

Documentation

Showing up to 5 results
|